Location: Unspecified
(43.4354°N, 0.0000°E)
Time: 21:09:04
(UTC+00:00)

Transit 2A - Pass Details

Date: 22 June 2019
Orbit: 594 x 964 km, 66.7° (Epoch: 19 July)

Event Time Altitude Azimuth Distance (km) Brightness Sun altitude
Rises 10:53:54 0° 308° (NW) 3,348 9.1 65.6°
Reaches altitude 10° 10:58:49 10° 270° (W) 2,290 8.4 66.1°
Maximum altitude 10:59:41 10° 261° (W) 2,240 8.4 66.2°
Drops below altitude 10° 11:00:33 10° 251° (WSW) 2,245 8.5 66.3°
Sets 11:05:06 0° 211° (SSW) 3,047 9.2 66.8°
